Regional Weather Roundup
Issued by NWS Goodland, KS

Home | Current Version | Previous Version | Graphics & Text | Print | Product List | Glossary On
Versions: 1 2 3 4 5 6 7 8 9 10 11 12 13 14 15 16 17 18 19 20 21 22 23 24 25 26 27 28 29 30 31 32 33 34 35 36 37 38 39 40 41 42 43 44 45 46 47 48 49 50
000
ASUS43 KGLD 250308
RWRGLD

GOODLAND FORECAST AREA HOURLY WEATHER ROUNDUP
NATIONAL WEATHER SERVICE GOODLAND KS
900 PM MDT THU JUL 24 2014

...OFFICIAL OBSERVATIONS...

CITY           SKY/WX    TMP DP  RH WIND       PRES   REMARKS
GOODLAND KS    CLOUDY    85  51  31 SW8       29.93R
HILL CITY KS   CLOUDY    88  70  55 S22G31    29.86R
IMPERIAL NEB   CLOUDY    75  61  61 N9        29.88F
MCCOOK NEB     CLOUDY    92  54  27 SW8       29.87R
AKRON CO       MOCLDY    78  52  40 S7        30.03R
BURLINGTON CO  CLOUDY    80  50  34 E7        29.96S
LIMON CO       LGT RAIN  71  57  61 W12       30.13R
$$

...UNOFFICIAL OBSERVATIONS...

CITY           SKY/WX    TMP DP  RH WIND       PRES   REMARKS
COLBY KS       CLEAR     90  57  33 S15G21    29.90R
GOVE KS          N/A     84  32  15 MISG        N/A
LENORA KS        N/A     86  32  14 MISG        N/A
NORTON KS      CLEAR     86  66  51 SE10G17   29.85R
OBERLIN KS     FAIR      88  59  37 S16       29.85S
SHARON SPRINGS   N/A     88  51  27 S20         N/A
TRIBUNE KS     MOCLDY    86 N/A N/A S18       29.95R
WAKEENEY KS      N/A     86  65  50 MISG        N/A
TRENTON NEB      N/A     85  32  15 E12         N/A
KIT CARSON CO    N/A     87  50  27 N6G13       N/A
$$


USA.gov is the U.S. government's official web portal to all federal, state and local government web resources and services.